Wind_Speed
42 41 40 39 39 38 37 35 35 36 36 36 36 35 34 33 33 34 33 32 33 33 35 38 41 43 47 54 60 59 54 52 51 52 52 54 54 51 49 48 47 46 44 43 41 40 38 37 35 34 33 32 30 29 28 27 26 25 24 22 21 21 20 18 15 14 13 13 13 13 14 14 13 12 11 11 10 9 8 8 8 7 7 6 5 4 5 7
42 41 40 39 39 38 36 35 35 36 37 37 37 36 35 35 35 34 34 34 34 34 35 39 42 45 50 56 59 57 54 52 51 52 53 54 53 51 49 47 46 46 44 43 42 41 39 37 36 35 33 32 31 29 28 27 26 25 24 22 21 20 20 19 15 13 11 11 11 12 12 13 13 12 11 11 10 10 9 8 8 7 7 6 5 4 4 6
42 41 40 40 39 38 36 35 36 37 38 39 38 37 37 37 36 35 36 36 36 35 37 41 44 48 52 56 56 53 52 52 52 53 54 53 52 51 49 48 47 45 44 44 43 41 40 39 37 35 34 32 31 30 28 27 26 25 23 22 21 20 19 19 16 13 11 10 10 10 10 11 11 11 10 10 10 9 9 8 7 7 6 6 5 5 4 5
43 41 40 40 39 37 36 35 36 38 39 41 40 39 39 39 37 37 37 38 37 37 40 43 45 48 51 52 51 51 51 51 53 54 53 52 51 50 49 48 48 46 45 44 43 41 40 39 38 36 34 32 31 30 28 27 25 24 23 22 22 20 19 19 17 15 12 11 10 9 9 9 9 9 9 9 9 9 9 8 7 7 6 5 5 5 4 5
43 41 40 40 39 37 36 36 37 39 41 43 42 41 42 40 38 39 39 39 38 38 40 43 44 46 48 48 48 49 50 52 53 53 53 52 51 50 48 47 47 47 46 45 43 42 40 39 38 36 34 33 31 30 28 26 25 23 23 22 22 20 19 19 18 16 14 13 11 10 9 8 8 8 8 9 9 8 9 9 8 7 6 5 4 4 4 4
44 41 40 39 39 37 36 36 38 41 43 44 42 43 44 40 39 41 40 40 39 38 39 40 41 43 45 46 47 49 51 52 53 53 52 52 51 50 49 48 46 46 46 45 44 42 41 39 38 36 35 33 31 30 28 26 25 23 22 21 21 20 19 18 18 17 15 14 13 11 10 8 8 8 8 8 7 8 8 8 8 8 7 6 5 3 3 3
44 41 40 39 38 36 35 37 40 42 44 45 43 45 44 40 41 42 41 40 39 37 37 39 40 42 44 46 47 48 51 52 53 52 52 51 51 50 50 49 48 46 45 44 44 42 41 39 38 36 35 33 32 30 28 26 25 23 22 21 20 20 19 18 18 17 16 15 14 12 10 9 9 8 7 7 6 7 7 7 8 8 8 7 6 5 4 4
44 41 40 39 38 36 35 38 41 43 46 45 44 48 45 40 41 42 42 41 39 37 37 39 41 42 44 45 46 48 51 51 52 52 51 51 50 50 50 49 48 47 46 45 44 43 41 40 38 37 35 34 32 30 28 27 26 24 23 22 21 20 20 19 18 18 17 16 15 13 12 11 10 9 8 7 7 7 6 7 7 8 8 8 7 7 6 5
45 42 40 39 38 36 36 39 42 44 47 46 46 49 45 42 42 42 42 41 40 38 38 40 41 42 43 44 46 48 50 50 51 51 50 50 49 49 49 49 48 47 46 45 44 43 42 40 39 37 35 34 32 31 29 28 27 25 24 23 22 20 20 19 18 17 16 15 15 14 14 13 12 11 9 9 9 8 7 7 7 8 8 9 9 8 8 8
45 42 40 38 37 37 37 40 43 46 47 46 47 50 46 43 43 42 43 41 40 39 39 40 41 42 42 43 45 47 49 49 49 49 49 49 49 48 49 48 48 47 46 45 44 43 41 40 39 38 36 35 34 32 31 29 28 27 25 23 22 20 19 18 17 16 16 15 15 15 15 14 13 12 12 12 11 10 9 8 8 8 8 9 9 10 10 9
46 42 40 38 37 37 38 41 44 47 47 45 49 52 48 45 44 43 43 42 41 40 39 40 40 41 41 42 44 45 48 49 48 48 48 48 48 48 48 48 48 47 46 46 45 43 42 41 40 39 38 36 35 33 32 31 29 28 26 24 22 21 19 18 17 17 16 16 15 16 16 16 15 14 13 14 13 12 11 10 9 9 9 9 9 10 11 11
46 43 41 39 38 38 39 42 45 48 47 45 50 53 49 46 45 44 44 43 42 41 40 40 40 41 41 42 43 45 48 49 47 48 47 47 48 48 48 48 48 47 47 46 45 44 43 42 41 40 38 36 35 34 33 31 30 28 27 25 23 22 20 19 18 17 16 16 16 16 16 17 17 15 14 15 14 13 13 12 11 10 10 10 10 11 11 12
47 44 42 40 39 39 40 43 47 49 47 45 49 53 50 47 47 44 44 43 42 42 41 40 40 41 41 42 44 45 48 49 48 49 48 48 48 48 48 48 48 48 47 46 45 45 44 42 41 40 38 37 36 34 33 31 29 28 26 25 24 22 21 20 19 18 17 17 17 17 17 17 18 16 16 16 16 16 15 13 12 11 11 11 10 11 12 13
49 45 42 40 40 40 41 44 49 50 47 46 49 53 52 49 48 45 44 43 43 43 42 41 40 41 41 42 44 45 47 49 48 49 49 49 48 48 48 48 48 48 47 46 45 45 44 43 42 41 39 38 37 35 33 31 30 28 26 25 24 22 21 21 20 19 18 18 18 18 17 18 19 18 18 18 18 17 16 14 13 12 12 11 11 11 12 14
51 46 43 41 40 41 42 45 50 51 49 47 48 52 54 51 48 46 44 43 43 43 43 42 41 41 41 41 43 45 46 48 48 48 49 49 49 48 48 48 48 47 47 47 46 45 44 44 43 41 40 39 37 36 35 33 31 29 28 26 24 23 22 22 21 20 20 19 20 19 18 19 20 19 20 20 19 18 17 15 14 13 13 12 11 11 12 14
52 48 45 42 42 41 42 45 50 52 51 49 49 51 55 54 50 47 44 44 44 45 44 43 42 41 41 41 42 44 44 46 47 47 49 49 49 49 49 49 48 48 47 47 47 46 45 44 43 42 41 39 38 36 35 34 33 31 29 26 24 23 23 23 22 22 21 21 21 21 20 20 21 21 21 21 21 20 19 17 15 14 14 14 13 12 13 14
53 50 46 44 43 42 43 46 49 53 52 51 50 50 54 56 53 49 46 45 46 46 45 44 42 42 42 41 42 42 42 43 45 46 47 48 49 49 49 49 48 48 47 47 47 46 45 44 43 42 41 40 38 37 36 34 32 29 27 26 25 24 24 24 24 23 23 22 22 22 21 21 23 22 22 23 22 21 20 17 16 15 15 15 15 14 14 15
55 51 48 46 44 43 44 46 48 53 54 53 52 51 53 56 55 52 49 48 47 48 48 46 45 44 43 41 41 42 41 41 43 44 45 47 48 49 48 49 49 48 48 48 47 46 46 45 44 43 42 41 39 37 35 32 29 28 28 27 26 26 26 25 25 24 23 23 23 23 22 23 24 23 23 23 23 22 20 19 18 17 17 17 17 16 15 15
57 54 50 48 46 44 44 45 47 53 55 54 54 53 52 55 57 55 51 51 50 49 50 48 46 45 43 42 41 42 42 41 42 43 44 45 47 48 48 49 48 49 49 48 48 47 46 45 44 43 41 39 37 34 33 31 31 31 31 30 29 28 27 26 26 25 25 24 24 23 23 24 24 23 23 24 23 22 22 22 20 19 19 19 18 17 16 16
59 56 53 50 48 46 45 45 47 52 56 55 55 55 52 54 57 58 55 53 52 51 49 47 47 46 44 42 42 42 42 41 42 43 43 44 45 47 48 48 48 49 49 48 48 47 46 45 43 41 38 37 35 35 35 35 34 34 33 32 31 29 29 28 28 27 26 26 25 25 24 24 24 24 24 25 24 23 24 23 22 21 21 20 19 18 17 17
61 59 55 51 49 47 46 46 47 50 55 55 55 55 53 52 55 57 56 55 54 53 50 48 48 47 45 44 42 41 41 40 41 42 43 43 44 45 46 47 48 48 48 48 48 47 47 45 42 40 39 39 39 39 39 38 37 36 34 33 32 30 30 29 29 28 28 27 27 27 26 25 26 26 26 26 25 24 25 25 24 23 22 21 20 19 19 19
61 60 57 53 50 49 48 47 47 49 54 56 55 55 53 51 52 54 53 53 54 54 52 50 49 48 46 45 43 42 41 40 40 41 42 43 43 44 45 45 45 46 46 47 47 47 47 45 42 42 42 43 42 41 40 39 37 36 35 34 32 31 31 30 30 30 30 30 29 28 27 26 27 28 27 27 25 25 26 25 24 24 23 22 22 21 20 20
61 60 58 55 52 51 49 48 48 49 52 55 54 55 54 52 52 53 52 51 52 52 51 50 50 49 47 45 44 43 41 40 39 39 41 42 42 43 43 43 43 43 44 44 44 45 44 43 42 42 43 42 42 41 40 39 37 36 35 34 33 32 32 32 32 32 32 32 31 30 29 27 28 29 28 28 26 25 26 25 25 26 25 24 24 22 21 21
61 60 59 57 54 52 51 49 49 49 51 54 55 55 55 53 53 53 52 52 53 52 50 49 50 49 48 46 45 44 42 40 40 39 39 40 40 41 41 41 42 42 42 42 43 42 42 41 42 43 42 41 41 40 39 38 37 36 35 34 34 34 34 34 34 33 33 33 32 32 31 28 28 29 29 28 27 25 26 26 26 27 27 26 24 23 23 23
62 62 60 58 56 53 52 51 50 50 50 54 55 55 55 54 53 54 53 53 55 56 53 51 50 50 49 47 46 45 43 42 41 40 39 39 39 40 40 41 41 42 42 42 42 43 43 42 43 43 42 41 41 40 39 38 38 37 36 36 36 36 35 35 34 34 34 34 33 33 33 31 28 29 29 29 28 26 26 27 27 28 28 26 25 24 24 24
61 63 61 59 57 55 54 53 52 51 51 53 55 55 55 56 55 55 55 54 57 58 57 55 53 52 51 50 47 46 45 44 43 41 40 40 40 40 40 41 41 42 42 43 44 44 44 44 44 44 42 41 41 40 39 39 39 38 38 37 37 37 36 36 35 35 35 35 34 33 34 32 29 28 29 28 28 27 27 27 28 28 27 26 26 26 26 26
60 63 62 60 58 56 55 54 54 54 53 53 55 55 55 56 57 58 57 57 59 60 60 59 57 55 55 53 50 48 47 46 45 44 42 41 41 41 41 41 42 42 43 44 45 45 44 44 45 44 43 42 41 40 40 39 39 39 39 38 38 37 37 36 36 36 36 35 35 34 35 34 30 27 28 28 28 28 28 28 29 28 28 27 26 27 27 27
59 62 62 61 59 57 56 56 55 55 54 53 55 56 55 56 58 59 60 60 61 61 62 62 61 59 59 57 54 51 50 48 46 45 44 42 42 42 43 42 42 42 43 43 44 43 42 42 43 42 42 42 41 41 41 41 41 40 40 39 38 38 37 37 37 37 36 36 35 34 34 35 31 26 26 28 28 29 30 29 29 28 28 28 27 27 28 28
58 61 62 61 60 58 56 57 56 55 54 54 54 56 56 56 58 61 63 64 64 62 63 64 64 63 61 59 57 54 51 49 48 46 44 43 42 42 43 43 43 43 43 43 43 42 42 42 42 42 42 43 42 42 42 42 42 41 40 39 39 38 38 37 37 37 37 36 35 34 33 35 32 26 26 29 29 29 31 31 30 29 28 28 27 27 28 29
56 59 60 60 60 58 56 57 57 56 55 55 55 56 57 58 59 62 65 66 65 63 62 62 63 63 62 60 58 56 53 50 49 47 45 45 43 42 42 42 43 43 43 44 44 44 43 43 44 44 44 44 45 45 44 43 43 42 40 40 39 38 37 37 37 36 37 37 35 34 33 34 34 28 27 29 29 29 30 31 31 30 28 28 28 28 29 30
55 58 60 59 59 58 55 55 57 56 56 57 57 57 58 58 59 62 64 63 63 64 62 60 60 61 61 60 59 58 56 53 50 49 47 46 45 44 44 43 44 43 43 44 45 45 45 45 46 46 45 45 45 45 45 44 43 42 41 39 38 38 37 37 37 37 37 37 36 35 33 34 35 30 27 29 30 30 30 30 31 30 29 28 28 29 30 30
55 57 59 58 58 57 55 54 55 57 57 57 58 59 59 60 61 63 62 61 62 63 62 60 58 57 59 60 59 59 57 54 51 50 48 47 46 45 45 44 43 44 43 44 45 45 45 46 46 46 46 45 45 45 45 44 43 42 41 39 38 37 37 37 37 37 37 37 36 35 34 34 35 31 29 30 30 30 30 31 31 30 29 29 29 29 29 30
55 57 58 58 57 57 56 54 54 56 57 58 59 60 61 62 64 63 61 61 62 60 59 59 57 56 57 61 62 59 57 54 51 49 48 47 47 47 46 45 43 43 42 41 42 43 44 45 45 45 45 45 45 45 45 44 43 41 39 38 37 36 36 37 36 36 36 36 36 35 34 35 34 31 30 30 30 30 30 31 31 30 30 30 30 30 30 30
56 58 59 59 58 58 56 55 54 55 57 58 60 61 63 63 63 63 63 63 61 58 57 56 56 55 55 59 63 60 57 55 52 50 49 49 49 48 47 46 45 43 42 42 42 42 42 43 43 44 44 44 44 44 43 42 42 41 40 39 38 37 37 36 36 36 35 35 35 35 35 34 33 31 31 31 30 29 30 31 31 31 32 31 31 31 31 31
57 60 61 60 60 59 57 56 55 54 56 58 60 62 64 63 62 63 65 64 62 60 58 56 56 56 55 56 61 61 58 55 54 52 52 51 50 49 47 46 45 44 44 43 43 42 42 41 41 42 42 42 42 42 42 42 42 42 41 40 39 38 37 37 37 36 35 35 35 35 34 33 32 32 32 31 29 28 30 31 32 33 33 33 33 32 32 32
58 60 62 62 61 60 59 58 56 55 55 57 60 63 63 63 63 63 64 63 63 62 61 59 58 58 58 57 59 61 60 57 55 55 54 53 52 51 49 47 46 45 44 43 43 43 42 41 41 41 42 42 41 41 41 41 41 41 40 39 38 38 38 38 38 38 37 37 36 35 33 31 31 32 33 32 30 29 30 32 33 34 34 35 34 34 34 34
58 60 62 62 62 62 60 59 57 56 56 57 59 62 63 64 65 63 62 62 63 64 64 63 61 60 59 58 58 59 60 60 59 58 56 55 54 53 51 49 47 46 45 44 44 43 42 42 42 42 42 42 41 41 41 40 40 40 40 39 38 39 39 38 39 39 39 39 37 34 32 30 30 31 33 33 32 31 31 32 34 35 35 35 36 36 36 36
58 60 62 62 62 62 61 60 59 57 57 57 58 59 62 65 65 63 62 62 62 63 63 63 62 60 59 59 58 58 59 61 62 61 59 58 57 55 52 51 49 47 47 47 46 46 45 45 45 44 44 43 43 43 43 42 41 40 40 40 41 41 41 40 40 40 39 38 37 35 33 32 31 31 32 34 34 33 32 32 33 34 34 35 36 36 37 37
58 59 61 62 62 62 61 61 60 58 59 59 58 59 60 62 64 63 63 62 62 62 62 61 61 60 60 59 58 58 59 60 61 62 62 61 59 57 54 52 51 49 49 48 48 48 48 48 48 47 47 46 46 46 45 43 42 42 42 42 42 42 41 40 40 40 39 38 38 37 36 34 33 32 33 34 35 35 34 33 33 34 34 35 36 36 37 38
56 59 60 61 62 62 62 61 61 60 59 58 58 58 58 59 61 62 62 62 62 62 61 60 59 59 59 58 58 58 58 57 58 60 63 64 62 59 57 55 53 52 51 51 51 50 50 50 50 50 50 50 49 47 45 44 44 44 44 44 43 42 42 41 41 40 39 39 39 39 39 37 36 35 35 35 36 37 37 37 37 37 36 37 37 38 39 40
50 54 58 59 60 62 62 62 61 59 55 54 56 57 57 57 58 60 61 62 62 62 61 60 59 58 58 58 58 58 57 57 56 57 60 63 64 62 59 57 55 53 54 54 53 53 52 52 52 53 53 51 49 48 47 47 47 47 46 45 44 44 43 43 44 42 41 42 42 42 42 41 39 38 38 38 39 39 39 40 40 41 40 40 40 41 42 43
47 49 52 54 57 58 59 60 59 57 54 53 54 55 55 55 55 55 57 59 60 61 61 60 59 58 58 58 57 57 57 56 56 56 56 59 65 66 61 58 56 55 55 55 54 54 54 54 55 55 54 52 51 51 50 50 50 50 49 48 47 47 46 46 46 44 44 45 45 46 46 44 42 41 41 41 41 41 42 43 44 45 45 45 45 45 46 46
50 48 48 49 52 54 56 57 56 54 54 54 54 54 54 53 53 53 52 53 55 57 58 59 59 59 58 58 57 56 56 56 56 56 54 55 62 66 63 59 57 56 56 56 56 56 56 57 57 57 56 55 55 54 54 53 53 53 51 50 49 49 48 49 49 49 50 49 48 49 49 47 44 44 44 45 45 45 46 47 48 49 50 50 50 50 50 50
54 52 51 51 52 53 54 53 50 49 52 54 55 56 56 55 55 54 53 52 52 52 54 56 57 58 58 59 58 57 57 57 56 56 54 54 57 61 61 59 58 58 57 57 57 57 57 58 59 59 59 59 59 59 58 57 56 54 53 52 52 52 52 53 53 53 54 52 50 52 50 47 46 46 47 48 49 50 51 52 52 52 52 53 53 53 53 53
58 57 56 56 56 56 55 52 48 47 50 52 54 55 56 56 56 55 55 54 54 53 53 53 55 56 57 58 59 58 58 58 57 56 56 55 56 58 59 60 59 59 59 58 59 59 59 60 61 61 62 63 62 61 59 57 56 56 55 55 55 55 56 56 55 57 56 53 53 54 51 49 49 49 51 53 54 55 55 54 54 53 54 55 55 55 56 57
60 60 59 58 56 55 55 54 51 49 48 48 50 52 53 54 54 54 55 55 55 54 54 54 54 54 56 57 58 59 59 59 58 57 56 56 56 57 58 59 60 60 60 61 61 62 63 64 64 64 65 64 63 61 59 57 57 57 56 56 57 57 57 57 59 60 57 55 57 56 53 53 52 53 55 56 57 58 57 56 57 56 57 59 58 57 59 60
57 58 58 58 56 53 52 52 53 52 50 48 48 48 49 51 52 53 55 55 54 54 54 54 54 53 54 55 56 58 58 59 60 59 58 57 57 58 58 59 59 60 61 62 63 64 65 67 67 67 66 65 64 64 63 62 60 59 58 58 58 58 58 59 61 60 56 58 60 56 54 55 54 55 57 56 58 59 59 59 60 60 60 61 60 59 61 63
54 55 56 56 56 54 51 49 49 51 52 52 50 48 48 49 49 50 52 52 52 52 53 54 53 53 52 51 53 56 57 58 60 60 60 60 59 59 59 59 60 60 60 61 62 64 66 67 67 67 67 66 66 66 65 65 64 63 63 62 62 62 62 63 63 61 60 63 61 57 58 58 56 58 59 58 60 61 61 62 63 63 63 62 62 63 63 65
53 53 54 54 55 55 53 51 50 49 50 51 52 51 49 48 47 47 48 49 49 50 52 53 52 52 52 50 50 52 55 58 59 60 60 60 61 61 61 61 61 61 60 60 60 62 64 65 65 66 66 66 66 66 66 66 66 65 65 65 64 65 65 65 64 62 63 65 63 62 64 62 59 60 61 60 62 63 63 63 63 64 64 64 65 66 66 67
55 54 54 53 53 54 53 53 53 52 52 52 51 50 49 48 47 47 48 47 46 46 48 50 50 50 51 52 52 51 51 54 56 58 58 58 59 59 59 60 60 60 59 59 59 60 61 62 63 64 65 66 67 66 66 67 67 67 67 66 66 66 66 66 66 65 67 67 65 64 66 63 60 61 61 60 61 61 61 63 63 64 65 66 68 69 69 69
57 56 56 55 54 54 53 53 52 53 54 53 51 50 49 49 48 48 48 48 47 45 43 44 46 47 48 50 51 49 48 50 53 55 56 57 57 58 58 58 58 58 57 57 57 58 59 61 62 62 64 66 67 67 67 68 68 68 69 68 68 68 68 68 68 67 68 68 66 66 67 64 61 60 59 58 60 60 61 62 64 66 68 69 70 71 71 71
57 58 58 57 57 56 55 54 53 52 52 52 51 52 51 51 50 50 49 48 48 48 46 44 46 47 47 47 46 44 45 49 50 52 54 55 56 57 58 59 59 59 58 58 58 58 59 60 61 61 63 65 66 66 66 66 68 71 71 69 69 69 69 69 68 67 66 66 66 66 65 62 61 61 60 59 59 61 62 64 66 67 68 69 70 71 71 71
Wind_Direction
211 213 213 211 211 213 215 214 213 212 208 207 208 211 214 210 206 205 203 204 207 207 204 200 198 198 197 191 184 180 179 180 183 184 185 186 186 186 186 185 184 183 183 182 181 181 179 177 173 172 172 170 168 168 168 168 166 165 164 163 162 160 155 153 159 165 163 161 157 153 149 147 149 150 147 143 139 133 122 107 97 88 86 90 94 98 105 113
210 212 213 212 211 212 213 213 211 209 205 204 207 210 210 204 201 200 199 200 200 200 198 193 190 190 189 184 180 178 178 180 182 184 186 187 186 186 186 185 185 185 183 182 182 181 179 177 174 173 173 170 169 169 169 170 168 166 165 164 165 164 157 156 161 166 166 165 160 155 154 152 151 150 150 149 148 143 134 122 110 99 89 87 90 93 95 103
210 212 212 212 211 211 212 211 209 206 203 203 205 208 205 198 196 196 196 194 192 191 189 185 182 182 181 179 178 178 179 180 182 184 186 187 187 187 186 186 186 186 184 183 183 181 180 177 175 174 173 171 170 171 172 171 169 167 166 166 166 167 162 158 161 166 169 170 165 161 159 156 152 152 154 156 156 153 144 137 127 115 102 92 90 90 93 98
210 211 211 212 211 210 211 210 208 204 202 203 205 204 199 193 193 193 191 187 186 185 183 180 178 178 178 178 178 179 180 180 182 184 186 187 187 187 187 187 187 186 185 184 183 182 181 179 176 175 174 172 173 173 173 173 170 167 168 168 167 169 166 161 162 167 172 175 172 171 169 163 159 158 161 162 162 162 156 150 144 135 123 109 98 92 93 95
209 210 210 211 210 210 210 210 206 202 202 204 204 200 193 189 190 189 186 183 182 182 179 177 177 177 178 179 179 180 180 180 182 184 186 187 187 187 188 189 189 187 185 184 183 183 182 180 177 176 175 174 175 176 175 174 172 170 170 171 169 171 169 165 166 170 174 179 179 179 178 174 171 169 170 171 168 169 167 164 161 156 148 137 124 111 105 101
208 209 210 210 210 209 209 209 205 200 202 204 202 195 188 187 188 185 182 181 180 179 178 176 177 178 179 180 180 180 181 181 181 184 186 187 187 187 188 189 190 189 187 185 184 183 183 181 179 177 176 177 177 177 177 175 174 174 174 175 173 172 171 171 172 174 178 182 182 184 184 185 187 185 182 181 177 176 177 176 175 173 171 163 156 154 150 138
208 209 209 209 209 208 209 209 204 200 202 204 200 191 185 185 186 182 179 179 177 178 178 177 177 178 179 180 180 180 181 182 182 184 187 188 188 188 189 189 190 191 189 187 185 184 184 183 180 179 178 179 179 178 177 177 177 176 177 180 179 176 175 178 180 180 182 184 185 187 188 192 201 200 196 192 191 189 186 186 186 186 187 186 182 183 192 190
207 208 208 207 207 206 208 208 203 199 202 204 197 188 183 185 185 181 178 178 177 178 178 178 177 178 178 179 180 181 182 182 183 185 187 189 189 189 190 190 190 191 190 188 186 185 185 183 182 181 181 181 180 179 178 179 180 179 179 183 184 182 181 185 187 187 188 188 189 191 192 196 206 210 207 205 207 205 199 198 197 195 197 199 200 200 207 213
206 207 207 207 206 204 206 206 202 200 202 203 195 186 183 185 185 181 178 177 177 178 179 178 178 178 178 179 180 182 183 184 184 186 187 190 191 190 191 192 191 191 191 189 188 187 186 184 183 184 184 182 181 180 180 182 183 181 182 185 188 188 188 190 191 192 194 195 195 197 198 200 207 213 212 211 216 216 212 212 209 204 204 204 208 210 214 220
206 207 207 206 206 204 204 203 201 201 203 201 193 185 183 184 185 181 179 178 178 179 180 179 179 179 179 180 181 183 184 185 185 186 188 191 192 192 193 192 192 192 192 190 189 188 187 186 186 186 186 184 183 182 184 186 186 185 184 186 190 193 193 193 195 197 200 202 203 204 205 207 209 213 216 216 219 222 219 221 222 218 215 211 212 214 219 224
205 206 205 205 205 204 204 201 200 202 202 199 192 185 184 185 185 182 180 179 179 180 181 181 182 182 182 182 183 184 185 186 187 187 189 192 193 193 194 193 193 193 192 191 190 190 189 189 188 188 188 186 185 185 187 189 190 188 186 188 192 196 199 199 199 202 206 208 210 211 213 214 213 214 219 221 220 224 225 223 227 228 227 225 220 220 221 225
204 205 204 204 203 203 203 200 199 201 199 198 193 186 184 186 185 184 182 180 180 182 183 183 184 185 185 185 186 186 186 187 188 189 190 193 195 195 194 194 194 193 193 192 191 191 191 191 190 191 190 189 188 189 191 192 193 192 190 192 194 198 204 206 205 207 211 215 217 218 219 220 220 216 219 226 226 226 230 228 228 230 233 233 231 230 227 226
204 204 204 203 203 202 202 199 198 198 197 198 194 188 186 187 186 185 184 182 182 184 184 184 185 186 186 188 189 189 188 189 189 190 191 193 195 196 196 195 195 194 194 193 193 193 193 192 192 193 191 191 192 193 194 195 197 198 196 196 198 202 208 213 214 214 218 222 224 226 224 225 227 222 219 227 229 229 232 231 231 233 235 235 235 237 236 233
204 203 203 203 202 202 201 199 197 196 195 198 197 190 187 188 187 186 186 185 185 185 186 186 186 186 187 189 190 190 191 191 191 191 193 195 196 197 197 197 196 196 195 195 195 195 195 194 194 194 193 194 195 195 197 198 200 203 203 203 203 206 211 217 221 221 224 228 231 233 231 230 232 227 223 226 231 234 235 233 234 237 239 240 240 242 243 241
204 202 203 203 203 202 201 199 198 196 195 198 199 194 189 189 188 188 189 189 189 188 187 188 187 187 187 189 190 191 192 192 193 193 194 196 197 199 199 199 199 198 197 197 197 197 197 197 196 196 196 197 198 198 200 201 203 205 207 209 209 211 214 220 224 225 227 230 234 237 235 235 236 232 229 230 232 236 238 236 235 239 244 245 244 247 248 246
205 202 203 203 203 202 200 201 199 196 195 198 201 198 192 190 189 188 191 192 192 190 189 189 189 189 189 190 190 191 192 193 194 195 196 197 198 199 200 200 201 200 199 199 199 199 200 199 199 198 199 199 201 202 203 204 205 207 210 213 215 217 220 225 228 229 231 233 235 238 236 236 239 236 234 234 233 235 237 238 238 240 245 248 249 249 250 248
205 203 203 203 204 203 200 202 201 196 196 197 202 202 195 192 190 189 192 193 193 192 190 190 190 190 192 190 190 191 193 194 195 196 197 198 199 200 200 201 202 202 202 202 201 202 202 202 202 202 202 203 204 205 207 208 209 211 215 218 221 224 226 229 232 233 235 236 237 239 238 237 239 238 237 236 235 236 237 239 240 240 242 246 249 248 248 246
205 202 202 203 204 204 201 202 202 197 196 198 201 204 199 195 192 190 192 193 193 193 191 191 191 191 192 190 190 192 194 195 197 197 198 200 201 202 202 202 203 204 204 204 204 204 204 204 204 205 205 205 207 208 211 212 215 218 221 224 227 229 231 234 237 238 239 240 240 241 239 238 239 240 240 239 238 238 238 238 239 239 239 242 246 249 249 246
206 203 202 203 204 204 202 202 203 199 198 199 201 205 201 197 194 192 192 193 193 193 192 192 192 192 191 191 192 194 194 196 197 198 199 201 202 203 204 204 204 205 206 206 206 206 207 207 207 207 207 209 211 213 216 218 220 222 224 227 229 231 234 237 240 241 241 242 243 243 242 241 242 242 241 240 239 238 238 237 237 237 239 241 244 248 251 248
206 203 201 203 204 204 203 203 203 200 200 200 201 205 203 198 196 194 193 193 193 192 192 192 193 192 191 192 193 194 195 196 197 199 200 201 203 203 204 205 205 206 207 207 208 208 209 209 209 210 212 214 216 218 220 221 222 224 227 229 231 234 237 239 242 244 244 244 245 244 243 243 244 242 240 239 237 236 236 236 235 236 239 241 242 246 249 245
206 204 201 202 203 204 203 203 204 202 201 202 202 205 205 201 198 197 195 194 193 192 190 191 192 191 191 192 193 193 194 195 197 199 200 202 203 204 205 205 206 208 208 209 209 210 211 211 210 212 214 216 218 220 221 223 224 226 229 231 233 236 239 241 244 246 247 247 246 246 244 242 244 243 240 238 235 234 236 236 237 237 239 240 240 242 243 242
206 205 202 202 203 204 204 203 204 203 203 204 203 204 205 203 200 199 198 197 195 192 190 190 192 192 191 192 192 192 193 194 197 198 200 202 204 205 206 206 207 209 210 211 212 212 212 212 212 214 216 217 219 221 224 225 227 229 231 233 235 237 240 243 245 246 248 248 248 248 247 243 244 245 243 240 236 233 236 237 238 240 239 239 238 239 242 244
206 206 203 202 203 204 204 203 204 204 204 206 205 204 205 204 201 199 200 199 197 193 190 190 192 192 192 193 193 193 193 195 196 197 200 202 203 205 205 207 209 210 211 212 213 215 215 215 216 217 218 220 222 224 226 228 230 232 234 235 237 238 240 242 244 245 247 249 250 250 249 246 246 247 246 244 239 234 236 237 238 240 239 238 238 239 241 243
206 206 205 203 203 204 205 204 204 204 204 206 207 206 205 205 203 200 200 200 197 194 192 192 193 193 193 195 195 194 195 196 197 198 200 202 203 204 204 206 208 209 211 213 214 215 215 217 219 220 221 223 224 226 228 230 232 234 236 236 238 238 240 242 244 246 248 250 251 252 252 248 246 247 246 245 242 236 236 236 236 239 239 239 239 239 240 241
206 206 205 205 204 204 205 205 205 205 205 205 207 208 206 205 204 202 201 201 198 195 194 194 195 195 195 196 196 196 196 198 198 199 200 202 203 204 205 206 207 209 210 212 214 214 215 216 218 219 221 223 225 227 229 231 232 234 235 236 237 238 240 242 244 246 248 250 252 253 254 250 245 245 245 245 244 239 236 236 237 239 241 241 240 239 239 241
207 206 206 205 205 205 205 206 205 205 205 206 207 209 209 206 204 204 203 202 201 197 195 195 196 196 196 196 197 197 198 199 200 200 201 202 203 204 206 207 208 209 211 212 213 214 216 217 219 221 222 223 225 227 228 230 231 232 234 235 236 238 240 242 244 247 248 250 252 253 254 251 245 243 245 245 245 243 239 238 239 240 242 241 240 240 240 241
208 206 206 205 206 206 206 207 207 206 205 206 206 208 210 209 206 205 204 205 203 199 197 197 197 197 196 196 197 198 199 200 200 201 202 204 204 205 206 207 209 211 212 214 215 215 217 219 221 223 224 226 227 228 230 231 232 233 234 235 237 238 240 242 244 246 248 249 250 251 253 253 247 242 244 245 245 246 243 241 241 242 243 241 240 241 242 243
208 207 207 207 206 206 207 208 209 208 206 207 207 207 210 211 210 207 206 208 206 201 199 200 199 199 198 197 197 197 198 200 201 202 202 204 206 207 207 208 209 212 214 215 216 217 219 220 222 223 225 226 228 230 230 231 232 233 234 235 237 238 240 242 244 245 247 248 249 249 251 253 249 241 241 245 245 246 247 246 244 244 244 243 241 241 243 245
208 207 207 207 208 207 207 208 210 210 208 207 208 208 209 210 212 212 210 210 209 204 203 203 201 201 200 199 198 197 197 199 202 203 204 206 208 208 209 209 210 213 214 214 216 217 219 221 222 223 224 225 226 228 229 230 231 232 233 234 236 238 239 241 243 245 246 247 248 249 249 252 250 240 237 242 243 245 249 250 249 247 246 245 243 242 243 246
209 208 208 208 208 208 208 208 210 211 210 209 209 209 209 210 211 214 214 212 211 208 207 207 205 204 203 201 201 200 198 199 201 203 205 207 209 210 211 212 212 214 214 215 215 216 217 219 221 222 223 224 225 227 228 229 230 231 233 234 236 238 239 241 243 244 246 247 247 247 247 249 249 241 234 237 241 243 247 250 252 251 249 247 245 244 245 247
209 208 208 208 208 209 209 209 210 211 211 210 210 210 211 210 211 214 216 214 213 212 211 210 209 208 206 204 204 203 201 200 201 204 206 208 209 211 212 213 214 214 215 215 216 217 218 219 220 221 222 223 225 227 228 229 230 232 233 235 237 238 240 241 242 243 245 245 245 246 245 246 246 242 235 234 236 239 243 248 251 252 252 251 249 248 247 248
210 208 207 208 208 209 209 209 209 210 211 211 211 212 212 213 212 215 217 216 217 216 213 213 213 212 211 209 208 206 204 202 203 205 207 209 211 212 213 215 216 217 217 216 217 218 219 221 221 222 223 224 225 227 228 230 232 234 235 236 237 239 241 242 243 244 245 246 245 245 244 244 244 243 239 236 235 236 239 244 248 252 254 256 255 254 252 251
210 208 206 207 208 208 209 209 208 209 211 211 212 212 213 215 216 217 219 219 219 218 215 215 216 216 216 214 211 209 207 206 206 208 210 211 213 214 215 217 218 218 219 220 221 221 222 222 223 224 225 225 227 228 230 232 234 235 236 238 239 240 242 243 244 245 245 245 245 244 244 243 243 243 243 240 237 236 238 241 245 248 251 253 255 256 256 256
210 208 206 206 207 208 209 210 209 208 209 211 213 213 214 216 217 219 221 221 222 221 219 218 217 217 218 216 212 210 209 208 208 211 214 215 215 216 216 217 218 218 218 220 221 222 224 225 225 226 227 228 229 230 231 232 234 234 235 236 237 238 240 242 243 244 244 244 245 244 244 242 242 243 244 244 241 238 238 240 242 244 246 248 251 254 256 257
209 208 206 206 207 208 209 209 209 209 209 211 213 214 216 218 218 218 221 222 223 225 223 221 220 220 219 216 212 212 213 212 211 213 216 217 217 217 217 218 219 220 220 221 221 221 223 224 225 227 228 229 230 231 232 232 234 235 236 237 238 240 241 243 244 244 244 244 244 243 243 243 242 243 244 246 244 241 240 241 243 244 245 247 249 250 252 254
209 208 207 207 207 208 208 209 209 209 210 211 213 215 217 219 220 220 221 222 224 226 226 224 223 222 222 219 215 214 214 215 216 217 218 219 219 218 219 220 221 222 223 225 225 225 225 225 224 226 227 228 229 231 232 233 234 236 237 237 239 241 242 243 244 244 245 244 243 242 242 242 243 244 245 247 246 243 242 243 245 246 246 248 249 251 252 253
208 208 209 209 209 209 209 209 209 209 210 212 214 216 217 219 220 220 221 223 224 226 226 226 226 225 225 224 221 219 217 217 218 219 219 220 220 219 218 219 221 223 224 226 228 228 228 229 228 228 230 230 231 232 232 233 234 236 237 237 239 241 241 242 244 244 245 246 245 244 243 243 243 244 246 248 248 245 244 244 246 248 249 250 251 253 255 255
208 210 210 210 210 211 210 210 210 210 211 212 214 216 217 219 220 220 220 223 224 226 227 227 228 228 228 228 228 226 224 222 221 220 220 221 220 218 219 220 221 223 225 226 228 229 229 231 230 230 232 232 232 233 233 233 234 235 236 237 238 240 241 242 244 246 247 248 248 246 244 243 243 243 246 249 250 250 248 247 248 250 252 253 254 255 257 258
208 210 211 212 212 212 212 212 212 211 212 213 214 216 217 219 220 220 220 221 223 225 227 228 228 229 230 230 230 231 230 229 226 224 223 222 221 219 219 222 223 225 227 228 230 231 231 233 233 232 233 234 234 235 235 235 236 237 238 239 240 242 244 244 246 248 249 251 251 249 247 245 244 243 245 248 251 253 254 253 252 252 252 254 256 258 259 260
206 209 212 213 213 213 213 214 214 214 215 216 216 217 218 219 220 221 221 222 223 224 226 227 228 229 230 231 231 231 233 233 231 229 227 225 224 222 221 222 224 226 230 231 232 233 233 234 236 236 236 236 237 237 238 239 240 241 242 243 244 246 248 249 250 250 252 253 253 252 249 247 246 246 246 248 251 254 256 258 258 257 256 256 258 259 260 260
207 207 211 214 216 217 217 216 216 217 218 219 219 219 219 219 221 222 221 222 223 224 226 227 227 228 229 230 231 232 233 233 233 233 230 227 226 225 224 225 227 229 231 234 234 235 236 237 237 238 239 239 240 241 241 242 243 243 244 245 246 247 248 250 251 250 252 253 254 253 250 249 249 249 249 250 251 253 256 259 260 261 261 260 259 260 260 261
213 210 210 213 216 219 221 222 221 220 221 221 220 220 221 221 222 223 223 224 224 225 226 227 227 228 229 230 231 232 233 234 234 234 234 231 227 226 227 228 230 232 235 236 237 238 240 240 240 241 242 241 242 242 242 243 243 244 244 244 246 248 249 251 252 252 253 252 253 254 252 250 250 252 252 253 254 255 257 259 261 262 263 264 263 263 263 263
215 214 213 213 215 217 220 223 223 222 223 223 221 221 221 221 223 224 224 225 226 226 227 228 228 228 229 230 231 232 232 234 235 235 236 235 229 225 227 229 231 235 237 237 238 239 240 241 242 242 242 243 243 243 243 244 244 245 245 246 248 249 251 252 252 252 252 251 252 254 253 252 253 256 258 259 259 259 260 261 262 263 265 267 268 269 268 269
211 213 213 214 215 216 219 222 221 220 222 222 222 222 222 222 223 225 225 225 226 226 227 228 229 229 229 230 231 232 232 233 234 234 235 235 229 226 229 232 233 236 238 238 239 240 241 242 242 242 242 242 242 243 243 243 245 247 247 247 248 249 250 251 251 252 252 252 253 255 255 256 259 261 262 262 262 261 261 262 263 265 267 270 272 273 274 274
204 207 208 209 211 214 217 220 220 219 220 220 220 222 224 225 225 225 226 226 226 227 227 227 228 228 229 229 230 231 232 232 234 234 234 234 232 230 232 234 235 237 239 239 240 241 242 243 243 243 244 244 244 245 246 247 249 250 250 250 250 250 251 252 253 254 254 254 255 256 257 258 260 261 262 262 263 262 263 264 266 268 269 270 272 273 274 274
200 201 202 202 205 209 213 217 219 218 218 218 219 220 223 224 225 226 227 227 227 228 228 228 228 228 228 228 229 230 231 232 233 233 233 234 233 233 234 236 237 237 238 239 240 241 242 243 243 244 245 245 247 248 249 251 252 252 252 253 253 254 254 254 255 254 254 256 256 255 257 258 257 259 261 263 265 267 268 268 268 268 269 270 271 272 273 273
204 203 203 202 202 204 208 212 215 216 216 217 218 219 220 222 223 225 226 227 227 228 229 230 229 230 230 229 229 230 231 232 233 233 233 233 233 234 234 236 237 237 238 238 239 240 242 243 244 245 246 247 248 248 248 248 249 249 249 250 251 252 253 253 253 253 254 255 254 253 256 258 257 259 261 263 265 267 268 267 267 267 268 270 271 272 274 274
210 209 209 209 207 206 206 208 211 214 215 216 216 217 218 219 221 222 224 225 226 227 229 229 229 230 231 230 230 230 230 231 232 233 233 233 233 233 233 234 235 236 236 237 238 240 242 243 245 246 247 247 248 249 249 249 249 249 248 248 249 249 250 251 252 252 253 254 254 253 255 256 255 257 259 260 262 263 265 266 268 269 270 271 272 272 272 273
213 212 213 213 213 213 211 210 210 211 213 215 216 216 217 218 219 221 222 224 225 227 228 228 228 228 229 229 229 229 230 231 231 232 233 233 234 233 234 234 234 235 235 236 237 238 240 242 244 245 246 247 248 249 249 250 250 249 249 250 249 250 251 252 253 254 254 255 255 255 255 255 255 258 260 261 262 264 265 267 268 270 271 271 272 271 271 272
214 214 214 215 215 216 215 213 213 213 214 216 217 216 217 218 220 221 222 223 224 225 226 227 227 228 229 230 229 228 229 231 232 232 233 233 234 234 234 234 234 235 236 236 237 238 239 241 242 243 245 245 246 247 248 249 249 249 248 248 248 249 251 253 254 255 256 257 257 258 258 258 258 261 262 263 264 265 266 267 267 268 268 269 269 270 272 273
214 215 216 216 217 217 216 215 214 214 216 218 219 219 218 219 220 222 223 224 224 224 224 224 225 227 229 229 228 228 229 231 232 232 232 232 233 233 234 235 235 235 236 237 238 239 240 241 241 242 243 244 245 246 247 247 248 247 246 247 248 250 252 254 255 255 256 258 258 259 260 260 261 262 264 263 263 264 264 265 265 265 266 267 269 270 271 273
216 216 216 217 218 218 218 218 216 216 216 217 219 220 220 220 222 224 224 224 225 226 225 224 225 227 228 229 228 228 231 232 231 231 231 231 231 231 232 233 234 234 235 236 238 239 240 241 242 242 243 244 245 245 246 246 246 246 247 249 251 253 254 254 254 254 256 258 258 259 261 262 261 261 262 262 262 262 262 263 263 264 265 267 268 269 271 272
Height
5683 5686 5689 5692 5695 5698 5700 5703 5706 5709 5712 5714 5717 5720 5722 5724 5727 5729 5732 5734 5736 5738 5740 5743 5747 5750 5755 5760 5764 5769 5773 5778 5782 5788 5792 5794 5798 5802 5805 5808 5811 5815 5818 5821 5825 5828 5831 5833 5835 5837 5840 5842 5845 5847 5849 5851 5853 5854 5855 5857 5858 5859 5860 5861 5863 5865 5866 5867 5868 5869 5870 5871 5872 5873 5874 5875 5876 5877 5877 5878 5878 5878 5879 5879 5879 5879 5878 5879
5680 5683 5686 5689 5692 5695 5698 5701 5704 5707 5710 5712 5715 5718 5721 5723 5725 5728 5730 5733 5735 5736 5739 5742 5745 5749 5754 5758 5763 5767 5771 5776 5782 5787 5790 5794 5797 5801 5804 5808 5811 5814 5817 5820 5824 5827 5830 5832 5834 5837 5839 5842 5844 5846 5848 5850 5852 5853 5855 5856 5858 5859 5860 5861 5863 5865 5866 5867 5868 5869 5870 5870 5871 5872 5873 5875 5876 5876 5877 5878 5878 5878 5879 5879 5880 5879 5879 5879
5678 5681 5684 5687 5690 5693 5696 5698 5702 5705 5708 5711 5714 5716 5719 5721 5724 5726 5729 5731 5733 5736 5738 5741 5744 5748 5753 5758 5762 5766 5770 5775 5780 5785 5790 5794 5796 5800 5803 5807 5810 5813 5816 5819 5823 5826 5829 5831 5833 5836 5839 5841 5844 5846 5848 5850 5852 5853 5855 5856 5857 5859 5860 5861 5862 5864 5865 5867 5868 5869 5870 5870 5871 5872 5873 5874 5875 5876 5877 5877 5878 5879 5879 5880 5880 5880 5880 5880
5675 5678 5682 5685 5688 5691 5693 5696 5699 5702 5706 5709 5711 5715 5717 5719 5722 5725 5728 5730 5733 5735 5738 5741 5744 5748 5753 5757 5762 5766 5770 5774 5779 5784 5789 5793 5796 5799 5803 5806 5809 5812 5816 5819 5822 5825 5828 5830 5832 5835 5838 5841 5843 5845 5847 5849 5851 5853 5854 5856 5857 5859 5860 5861 5862 5863 5865 5866 5868 5869 5869 5870 5871 5872 5873 5874 5875 5875 5876 5877 5878 5878 5879 5880 5880 5881 5881 5880
5672 5676 5679 5682 5686 5688 5691 5694 5697 5700 5704 5706 5709 5712 5715 5718 5721 5724 5726 5729 5732 5735 5738 5741 5744 5748 5753 5757 5761 5765 5769 5773 5777 5783 5788 5791 5795 5798 5802 5806 5809 5812 5815 5818 5821 5824 5827 5830 5831 5834 5837 5840 5843 5845 5847 5849 5851 5853 5854 5855 5857 5858 5860 5860 5862 5863 5865 5866 5867 5868 5869 5870 5871 5872 5873 5874 5874 5875 5876 5877 5878 5878 5879 5880 5880 5881 5881 5881
5670 5674 5677 5680 5683 5686 5689 5691 5694 5698 5701 5704 5707 5711 5714 5717 5719 5722 5725 5728 5731 5735 5738 5741 5745 5748 5752 5757 5761 5765 5769 5773 5777 5782 5786 5790 5794 5797 5801 5805 5809 5812 5815 5817 5820 5823 5826 5829 5831 5833 5836 5839 5842 5844 5846 5848 5850 5852 5854 5855 5856 5858 5859 5860 5861 5863 5864 5866 5867 5868 5869 5870 5871 5872 5873 5873 5874 5875 5875 5876 5877 5878 5879 5879 5880 5881 5881 5881
5668 5671 5675 5678 5681 5684 5686 5689 5692 5696 5699 5702 5705 5709 5712 5715 5718 5721 5724 5727 5731 5734 5738 5741 5745 5748 5752 5756 5761 5765 5769 5773 5777 5781 5786 5789 5792 5796 5800 5803 5808 5812 5815 5817 5820 5822 5825 5828 5830 5833 5835 5838 5841 5843 5846 5848 5849 5851 5853 5854 5856 5857 5859 5860 5861 5862 5864 5865 5866 5867 5868 5869 5870 5871 5872 5873 5874 5874 5875 5876 5877 5878 5878 5879 5880 5880 5881 5881
5665 5669 5672 5675 5678 5681 5684 5687 5690 5694 5697 5700 5704 5707 5710 5714 5717 5720 5723 5727 5730 5734 5737 5741 5745 5749 5752 5757 5761 5765 5769 5773 5776 5780 5785 5789 5792 5795 5799 5802 5806 5810 5814 5817 5819 5821 5824 5827 5829 5832 5834 5837 5840 5843 5845 5847 5848 5850 5852 5853 5855 5857 5858 5859 5860 5861 5863 5865 5865 5866 5867 5868 5869 5871 5872 5873 5874 5874 5875 5875 5876 5877 5878 5879 5879 5880 5881 5881
5663 5666 5670 5673 5676 5679 5682 5685 5688 5692 5695 5698 5702 5705 5709 5713 5716 5719 5722 5726 5729 5733 5737 5741 5745 5749 5753 5756 5760 5764 5768 5772 5776 5779 5783 5788 5791 5794 5798 5802 5805 5809 5813 5816 5818 5820 5823 5826 5828 5831 5833 5836 5839 5841 5843 5845 5847 5849 5851 5852 5854 5856 5857 5858 5859 5861 5862 5864 5865 5866 5867 5868 5869 5870 5872 5873 5873 5873 5874 5875 5876 5876 5877 5878 5879 5879 5880 5881
5660 5664 5667 5671 5674 5677 5679 5683 5686 5690 5693 5697 5700 5704 5707 5711 5715 5718 5721 5725 5729 5733 5737 5741 5744 5748 5752 5756 5760 5763 5767 5771 5775 5778 5782 5786 5790 5793 5797 5800 5804 5808 5811 5814 5817 5819 5822 5824 5827 5829 5832 5834 5837 5839 5842 5844 5846 5848 5850 5851 5853 5855 5856 5858 5859 5860 5862 5863 5864 5865 5866 5868 5869 5870 5871 5872 5872 5873 5873 5874 5875 5876 5876 5877 5878 5878 5879 5880
5658 5661 5665 5668 5672 5675 5677 5681 5684 5688 5692 5695 5699 5702 5706 5710 5714 5717 5720 5724 5728 5732 5736 5740 5744 5748 5751 5755 5759 5762 5766 5770 5773 5777 5781 5785 5789 5792 5795 5799 5802 5806 5810 5813 5815 5818 5820 5822 5825 5827 5830 5832 5835 5838 5840 5842 5844 5846 5848 5850 5851 5853 5855 5857 5858 5859 5861 5862 5864 5865 5866 5867 5868 5869 5870 5871 5872 5872 5873 5873 5874 5875 5876 5876 5877 5877 5878 5879
5655 5659 5662 5666 5669 5672 5675 5679 5683 5687 5690 5694 5698 5701 5705 5709 5713 5716 5719 5723 5727 5731 5735 5739 5743 5746 5750 5754 5757 5760 5764 5768 5772 5775 5779 5784 5788 5791 5794 5797 5801 5804 5808 5810 5813 5816 5818 5821 5824 5826 5828 5831 5834 5836 5838 5840 5842 5845 5847 5849 5850 5852 5853 5855 5857 5858 5860 5861 5863 5864 5865 5866 5867 5869 5869 5869 5871 5871 5872 5872 5873 5874 5875 5875 5876 5876 5877 5878
5653 5656 5660 5664 5667 5670 5673 5677 5681 5685 5689 5692 5696 5699 5703 5707 5711 5715 5718 5722 5726 5730 5734 5738 5741 5745 5749 5752 5755 5759 5762 5766 5770 5774 5778 5782 5786 5790 5793 5796 5799 5802 5806 5809 5811 5814 5816 5819 5822 5824 5827 5830 5832 5834 5837 5839 5841 5843 5846 5847 5849 5851 5852 5854 5855 5857 5859 5860 5861 5863 5864 5865 5866 5868 5868 5868 5869 5870 5870 5871 5872 5873 5874 5874 5875 5875 5876 5877
5651 5654 5658 5662 5665 5668 5671 5675 5679 5683 5687 5690 5694 5698 5702 5706 5709 5713 5717 5721 5724 5728 5732 5736 5740 5743 5746 5749 5753 5757 5761 5764 5768 5772 5776 5780 5784 5788 5791 5794 5797 5800 5804 5807 5810 5813 5815 5818 5820 5822 5825 5827 5830 5833 5835 5837 5840 5842 5844 5846 5848 5850 5852 5853 5854 5856 5857 5859 5860 5861 5863 5864 5865 5867 5867 5867 5868 5868 5869 5870 5871 5872 5872 5873 5874 5874 5875 5875
5649 5653 5656 5660 5663 5666 5669 5673 5676 5680 5684 5688 5692 5696 5700 5704 5708 5712 5716 5719 5723 5726 5730 5734 5738 5741 5744 5748 5751 5755 5759 5763 5767 5770 5774 5778 5782 5786 5790 5793 5796 5799 5802 5805 5808 5811 5813 5816 5818 5821 5823 5826 5828 5831 5833 5835 5838 5840 5842 5844 5847 5849 5850 5851 5852 5854 5856 5857 5858 5860 5861 5863 5864 5865 5866 5866 5867 5867 5868 5869 5870 5871 5871 5872 5873 5873 5874 5874
5647 5650 5654 5658 5661 5664 5667 5671 5674 5678 5682 5686 5689 5693 5698 5702 5705 5709 5713 5717 5720 5724 5728 5732 5736 5740 5743 5746 5750 5754 5758 5762 5765 5769 5773 5777 5780 5784 5787 5791 5794 5797 5800 5803 5806 5809 5811 5814 5816 5819 5821 5824 5827 5829 5832 5833 5835 5838 5840 5843 5845 5847 5849 5850 5851 5852 5854 5856 5857 5858 5860 5861 5862 5863 5864 5864 5865 5866 5867 5868 5869 5870 5870 5871 5871 5872 5872 5873
5644 5648 5652 5656 5659 5662 5665 5668 5672 5676 5680 5684 5687 5691 5695 5699 5703 5706 5711 5714 5718 5722 5726 5730 5734 5737 5740 5744 5749 5753 5756 5760 5764 5767 5771 5774 5778 5782 5785 5788 5792 5795 5798 5801 5804 5807 5809 5812 5815 5818 5820 5823 5825 5827 5829 5832 5835 5838 5840 5842 5844 5845 5847 5848 5849 5850 5852 5854 5855 5856 5858 5859 5859 5861 5862 5863 5864 5865 5866 5867 5868 5869 5869 5870 5870 5870 5871 5871
5641 5646 5650 5654 5657 5660 5663 5666 5669 5673 5677 5681 5684 5688 5692 5697 5700 5704 5708 5712 5716 5719 5723 5727 5731 5735 5738 5743 5748 5751 5754 5758 5761 5765 5768 5772 5776 5780 5783 5786 5789 5793 5796 5799 5802 5804 5807 5810 5813 5815 5818 5820 5823 5826 5829 5833 5836 5838 5839 5840 5842 5843 5844 5845 5847 5848 5850 5851 5853 5854 5856 5857 5857 5859 5860 5861 5863 5864 5865 5865 5866 5867 5867 5868 5868 5869 5869 5870
5638 5643 5647 5651 5655 5658 5661 5664 5667 5670 5674 5678 5682 5686 5690 5695 5698 5702 5706 5710 5714 5717 5722 5727 5731 5736 5740 5744 5746 5749 5752 5756 5759 5763 5766 5770 5774 5777 5781 5784 5787 5790 5793 5797 5800 5803 5806 5808 5811 5813 5817 5820 5823 5827 5829 5832 5833 5834 5835 5837 5839 5840 5842 5843 5844 5846 5847 5848 5850 5852 5853 5854 5855 5857 5858 5859 5861 5862 5863 5863 5864 5864 5865 5866 5867 5867 5868 5869
5635 5640 5645 5649 5652 5656 5659 5662 5665 5668 5672 5676 5681 5684 5688 5693 5696 5700 5704 5709 5713 5717 5723 5728 5732 5735 5739 5742 5744 5747 5750 5754 5757 5761 5764 5768 5771 5775 5778 5782 5785 5788 5791 5795 5798 5801 5804 5807 5810 5814 5818 5820 5822 5824 5826 5827 5829 5830 5832 5834 5836 5838 5839 5841 5842 5843 5845 5846 5848 5849 5851 5852 5853 5854 5855 5856 5858 5860 5860 5861 5862 5863 5863 5865 5865 5866 5866 5867
5632 5637 5641 5646 5650 5653 5656 5660 5663 5667 5670 5674 5679 5683 5688 5693 5697 5701 5705 5708 5712 5716 5721 5725 5729 5732 5736 5739 5742 5746 5749 5753 5756 5759 5762 5765 5769 5772 5776 5779 5783 5786 5789 5792 5795 5799 5801 5805 5810 5813 5814 5816 5817 5819 5821 5823 5826 5827 5829 5832 5834 5835 5837 5838 5840 5841 5842 5844 5845 5846 5848 5850 5850 5851 5852 5854 5856 5858 5858 5859 5860 5861 5862 5863 5864 5864 5864 5865
5628 5634 5638 5643 5647 5651 5654 5658 5661 5665 5669 5673 5678 5682 5687 5692 5696 5700 5704 5707 5711 5714 5717 5721 5725 5729 5733 5736 5740 5744 5748 5751 5754 5757 5760 5763 5767 5770 5774 5778 5781 5784 5787 5791 5794 5796 5800 5804 5806 5807 5809 5811 5813 5816 5819 5821 5823 5825 5827 5829 5831 5833 5834 5836 5837 5839 5840 5841 5842 5844 5846 5848 5848 5848 5849 5851 5853 5855 5856 5857 5858 5859 5860 5860 5861 5862 5862 5863
5625 5630 5635 5640 5644 5648 5652 5655 5659 5663 5667 5672 5676 5680 5684 5688 5692 5696 5699 5703 5708 5711 5714 5718 5721 5725 5730 5734 5737 5741 5745 5749 5752 5756 5759 5762 5765 5768 5772 5776 5778 5782 5785 5789 5792 5795 5800 5802 5803 5804 5807 5809 5812 5815 5817 5819 5822 5823 5825 5827 5829 5830 5832 5833 5834 5836 5837 5838 5839 5841 5843 5845 5846 5846 5847 5848 5851 5853 5854 5855 5856 5856 5857 5857 5858 5860 5860 5861
5622 5627 5632 5637 5641 5645 5649 5653 5657 5661 5665 5670 5673 5677 5681 5685 5688 5691 5695 5699 5703 5707 5711 5715 5718 5722 5726 5730 5734 5738 5742 5746 5749 5753 5757 5760 5763 5766 5769 5772 5775 5779 5783 5786 5789 5793 5796 5798 5799 5802 5805 5807 5810 5812 5815 5817 5819 5821 5823 5825 5826 5827 5828 5830 5831 5832 5834 5835 5836 5838 5839 5842 5843 5844 5845 5846 5848 5851 5851 5853 5853 5853 5854 5855 5857 5858 5858 5858
5618 5623 5628 5633 5638 5642 5647 5651 5655 5659 5662 5667 5670 5674 5678 5681 5685 5688 5691 5695 5698 5702 5706 5711 5715 5719 5723 5727 5731 5735 5739 5743 5746 5749 5753 5756 5760 5764 5767 5769 5773 5777 5780 5783 5786 5788 5791 5793 5796 5798 5801 5804 5807 5809 5812 5814 5816 5818 5820 5821 5823 5824 5825 5827 5828 5829 5831 5832 5834 5835 5836 5838 5841 5841 5842 5843 5845 5847 5849 5850 5850 5850 5852 5853 5854 5855 5855 5856
5614 5620 5625 5630 5635 5639 5644 5648 5652 5656 5660 5664 5668 5671 5674 5678 5682 5685 5688 5691 5694 5698 5702 5706 5710 5715 5720 5724 5728 5732 5735 5738 5742 5746 5750 5753 5757 5760 5764 5767 5771 5774 5777 5779 5781 5784 5787 5790 5793 5795 5798 5801 5803 5806 5808 5810 5813 5815 5816 5818 5819 5821 5822 5824 5825 5826 5827 5829 5831 5832 5832 5834 5838 5839 5840 5841 5842 5844 5846 5847 5847 5848 5850 5851 5851 5852 5852 5853
5611 5617 5622 5627 5632 5636 5641 5645 5649 5653 5657 5661 5665 5668 5671 5675 5678 5681 5685 5687 5688 5693 5698 5702 5706 5711 5716 5720 5725 5728 5732 5736 5740 5743 5747 5751 5754 5757 5761 5764 5768 5771 5773 5775 5778 5782 5785 5788 5790 5793 5796 5798 5801 5804 5806 5808 5810 5812 5814 5815 5816 5817 5819 5820 5822 5823 5824 5825 5827 5828 5829 5830 5835 5837 5838 5838 5839 5841 5842 5844 5845 5846 5847 5848 5849 5849 5849 5850
5608 5613 5619 5624 5629 5633 5638 5643 5647 5651 5654 5658 5662 5665 5668 5671 5675 5678 5681 5681 5684 5690 5694 5698 5703 5707 5711 5716 5720 5724 5729 5734 5737 5740 5745 5748 5751 5755 5758 5761 5764 5767 5769 5773 5777 5781 5783 5785 5788 5791 5794 5797 5799 5801 5803 5804 5806 5808 5810 5811 5813 5814 5815 5817 5818 5820 5821 5822 5823 5826 5826 5827 5831 5836 5836 5836 5837 5837 5838 5840 5842 5843 5844 5845 5846 5846 5847 5847
5605 5610 5615 5620 5625 5629 5634 5639 5644 5647 5651 5655 5658 5661 5664 5667 5670 5673 5674 5676 5681 5687 5691 5696 5700 5704 5709 5713 5717 5721 5725 5730 5734 5738 5743 5745 5749 5752 5755 5758 5761 5763 5766 5770 5774 5776 5779 5782 5785 5787 5790 5793 5795 5797 5799 5801 5802 5804 5806 5808 5809 5810 5812 5813 5815 5817 5818 5819 5821 5823 5824 5824 5827 5833 5834 5833 5834 5835 5835 5836 5838 5840 5841 5842 5843 5844 5844 5844
5603 5607 5612 5617 5622 5626 5631 5635 5639 5643 5647 5651 5655 5657 5660 5662 5665 5666 5668 5672 5678 5685 5690 5694 5699 5703 5707 5711 5715 5719 5722 5726 5731 5735 5738 5742 5746 5749 5752 5755 5757 5760 5763 5767 5769 5772 5775 5778 5780 5784 5787 5789 5791 5793 5795 5797 5798 5800 5802 5804 5806 5807 5809 5811 5812 5814 5815 5816 5818 5819 5821 5822 5824 5829 5831 5830 5831 5832 5832 5833 5834 5836 5837 5839 5840 5841 5841 5841
5600 5604 5609 5614 5619 5624 5628 5632 5635 5640 5644 5647 5650 5652 5655 5658 5660 5662 5666 5672 5678 5683 5688 5692 5697 5701 5706 5711 5714 5718 5721 5723 5727 5731 5734 5739 5742 5745 5748 5751 5754 5757 5760 5763 5766 5769 5772 5774 5777 5780 5783 5785 5787 5790 5791 5793 5795 5797 5799 5801 5803 5804 5806 5808 5809 5811 5811 5813 5815 5816 5819 5820 5820 5825 5828 5828 5828 5829 5830 5831 5832 5833 5834 5835 5836 5837 5838 5838
5596 5601 5606 5611 5615 5620 5624 5628 5631 5636 5639 5643 5646 5648 5651 5653 5655 5658 5666 5672 5674 5678 5685 5691 5696 5701 5706 5710 5713 5716 5719 5721 5724 5727 5731 5735 5739 5743 5746 5749 5752 5755 5758 5761 5764 5766 5769 5772 5774 5777 5780 5782 5784 5786 5788 5791 5793 5795 5797 5799 5800 5802 5803 5805 5806 5807 5808 5810 5812 5813 5815 5817 5818 5822 5824 5824 5825 5827 5828 5829 5829 5830 5831 5831 5832 5833 5834 5835
5593 5598 5602 5607 5611 5616 5620 5623 5627 5631 5635 5639 5641 5644 5648 5649 5651 5658 5664 5667 5670 5676 5684 5690 5695 5699 5703 5705 5708 5712 5715 5718 5721 5725 5728 5732 5736 5739 5742 5746 5749 5753 5757 5760 5762 5764 5767 5769 5772 5775 5777 5779 5781 5783 5786 5789 5791 5793 5794 5796 5797 5799 5800 5801 5803 5804 5805 5807 5808 5810 5812 5813 5816 5819 5819 5820 5823 5825 5826 5826 5827 5828 5828 5828 5828 5829 5830 5830
5590 5594 5598 5603 5607 5611 5615 5619 5623 5627 5630 5634 5637 5640 5643 5646 5651 5658 5660 5663 5668 5674 5681 5686 5691 5695 5697 5700 5705 5709 5712 5714 5718 5721 5725 5728 5731 5734 5739 5742 5746 5750 5754 5756 5758 5761 5764 5767 5771 5773 5775 5777 5779 5781 5783 5785 5786 5788 5790 5792 5793 5795 5796 5798 5799 5800 5802 5803 5804 5807 5809 5811 5814 5815 5815 5817 5819 5822 5823 5823 5824 5824 5824 5825 5825 5826 5826 5826
5586 5590 5594 5599 5603 5607 5611 5615 5618 5622 5625 5629 5633 5636 5640 5645 5650 5654 5656 5660 5666 5670 5677 5682 5686 5690 5692 5696 5700 5704 5707 5711 5715 5718 5720 5724 5728 5732 5737 5741 5744 5747 5750 5752 5755 5758 5760 5764 5767 5769 5771 5774 5775 5776 5778 5780 5781 5783 5786 5788 5790 5792 5794 5795 5796 5797 5799 5800 5801 5803 5805 5808 5811 5811 5812 5813 5816 5819 5819 5819 5820 5820 5821 5822 5822 5822 5823 5823
5583 5587 5591 5595 5599 5602 5606 5610 5614 5618 5621 5625 5628 5633 5639 5643 5646 5650 5654 5659 5664 5668 5672 5677 5681 5684 5687 5691 5695 5699 5704 5708 5712 5714 5717 5721 5725 5729 5733 5738 5741 5745 5748 5751 5753 5756 5758 5761 5763 5765 5766 5768 5769 5771 5773 5775 5778 5780 5783 5785 5788 5789 5790 5791 5792 5794 5795 5796 5797 5800 5803 5805 5807 5808 5808 5810 5812 5814 5815 5815 5815 5816 5817 5818 5818 5819 5819 5819
5580 5584 5587 5591 5595 5598 5602 5606 5610 5614 5617 5621 5625 5631 5637 5639 5641 5647 5652 5657 5661 5663 5667 5672 5676 5680 5684 5688 5692 5697 5701 5704 5707 5710 5714 5718 5720 5725 5730 5733 5737 5741 5744 5747 5750 5753 5755 5757 5759 5761 5762 5764 5766 5767 5769 5772 5774 5777 5779 5782 5784 5784 5785 5787 5788 5789 5791 5792 5795 5798 5800 5803 5804 5805 5805 5806 5808 5810 5811 5811 5811 5811 5813 5813 5814 5815 5815 5816
5577 5581 5584 5587 5591 5594 5598 5601 5605 5610 5613 5617 5623 5628 5631 5633 5637 5644 5649 5653 5657 5659 5663 5668 5672 5677 5682 5685 5690 5694 5697 5700 5703 5707 5710 5713 5717 5722 5727 5730 5733 5737 5739 5742 5745 5747 5750 5751 5753 5756 5757 5759 5761 5762 5764 5767 5771 5773 5776 5777 5778 5778 5781 5783 5784 5786 5788 5790 5792 5795 5797 5799 5800 5802 5802 5802 5803 5804 5806 5807 5807 5808 5809 5809 5810 5811 5811 5811
5574 5577 5580 5583 5587 5590 5594 5597 5601 5605 5608 5613 5619 5623 5626 5630 5634 5640 5645 5648 5652 5655 5659 5664 5669 5674 5677 5682 5686 5689 5692 5696 5700 5704 5707 5710 5714 5719 5723 5726 5730 5732 5735 5737 5739 5742 5745 5746 5748 5750 5752 5753 5755 5757 5760 5765 5768 5770 5771 5772 5773 5775 5778 5780 5782 5783 5785 5787 5789 5791 5793 5795 5797 5798 5799 5799 5799 5800 5801 5803 5803 5804 5805 5805 5806 5806 5806 5806
5570 5574 5576 5580 5583 5586 5589 5593 5596 5600 5605 5612 5617 5619 5623 5627 5630 5635 5640 5643 5647 5651 5655 5660 5665 5670 5673 5678 5681 5684 5687 5691 5696 5699 5702 5707 5711 5715 5720 5723 5725 5728 5730 5732 5734 5737 5739 5741 5743 5745 5746 5748 5751 5755 5759 5762 5763 5765 5766 5768 5771 5773 5775 5777 5778 5780 5782 5783 5785 5786 5788 5790 5792 5794 5795 5796 5796 5796 5797 5797 5798 5799 5800 5801 5802 5802 5801 5801
5567 5570 5573 5577 5580 5583 5586 5589 5592 5597 5604 5610 5613 5616 5620 5623 5626 5631 5635 5639 5643 5647 5652 5656 5661 5665 5669 5672 5676 5679 5682 5686 5690 5693 5696 5702 5707 5711 5716 5719 5721 5723 5724 5726 5729 5733 5734 5737 5739 5739 5741 5746 5749 5752 5755 5756 5757 5759 5761 5764 5766 5768 5770 5771 5773 5776 5779 5779 5780 5781 5782 5785 5787 5789 5791 5792 5792 5793 5793 5792 5792 5793 5794 5796 5797 5797 5796 5796
5563 5566 5570 5574 5577 5580 5584 5585 5589 5596 5601 5605 5609 5612 5616 5620 5623 5627 5631 5636 5640 5644 5648 5651 5655 5660 5663 5667 5670 5674 5677 5681 5684 5688 5692 5698 5703 5707 5711 5714 5716 5718 5719 5722 5725 5728 5730 5731 5733 5734 5738 5742 5744 5746 5748 5749 5751 5753 5755 5759 5762 5763 5766 5768 5769 5773 5774 5774 5775 5776 5777 5780 5783 5785 5786 5787 5788 5789 5788 5788 5787 5788 5788 5789 5790 5790 5790 5791
5559 5563 5567 5571 5574 5577 5579 5581 5586 5593 5598 5602 5606 5609 5612 5616 5620 5623 5628 5632 5636 5640 5644 5647 5651 5655 5658 5662 5665 5669 5673 5676 5679 5683 5688 5693 5696 5700 5703 5706 5709 5711 5712 5715 5718 5722 5723 5724 5727 5729 5732 5735 5736 5739 5742 5743 5745 5748 5752 5757 5758 5760 5763 5764 5765 5767 5767 5768 5771 5771 5772 5776 5780 5781 5782 5782 5783 5784 5783 5782 5782 5782 5782 5783 5782 5782 5783 5784
5556 5560 5564 5567 5569 5572 5574 5577 5584 5590 5594 5597 5601 5605 5608 5612 5615 5619 5623 5628 5631 5635 5639 5642 5646 5650 5654 5658 5661 5665 5668 5670 5674 5679 5683 5686 5690 5694 5696 5699 5702 5704 5707 5710 5713 5716 5717 5718 5720 5723 5724 5726 5728 5731 5734 5738 5742 5745 5750 5753 5754 5756 5756 5756 5758 5759 5759 5764 5767 5766 5769 5774 5777 5778 5777 5776 5777 5777 5776 5776 5777 5778 5778 5777 5775 5774 5776 5777
5552 5556 5560 5563 5565 5568 5571 5575 5581 5586 5589 5593 5597 5601 5604 5608 5611 5615 5619 5622 5626 5629 5633 5637 5640 5645 5649 5653 5656 5659 5662 5666 5670 5674 5678 5681 5685 5688 5690 5693 5696 5699 5702 5705 5707 5709 5709 5710 5713 5715 5716 5719 5723 5727 5732 5738 5741 5743 5745 5747 5748 5750 5750 5751 5753 5752 5755 5761 5762 5762 5767 5771 5773 5773 5771 5769 5768 5768 5769 5771 5772 5773 5772 5770 5769 5769 5769 5770
5547 5551 5555 5558 5561 5565 5568 5572 5577 5581 5585 5589 5593 5597 5600 5604 5608 5612 5614 5618 5621 5625 5628 5631 5635 5639 5643 5647 5651 5654 5658 5662 5665 5669 5673 5677 5680 5682 5685 5687 5690 5693 5695 5697 5699 5700 5700 5702 5706 5708 5711 5717 5722 5725 5730 5733 5735 5736 5739 5741 5742 5743 5745 5746 5744 5745 5752 5756 5754 5757 5763 5764 5767 5767 5763 5763 5761 5760 5763 5765 5766 5767 5765 5762 5763 5763 5763 5762
5543 5547 5551 5554 5558 5561 5565 5569 5573 5577 5582 5585 5589 5593 5597 5600 5603 5606 5609 5612 5617 5620 5623 5626 5630 5634 5638 5643 5647 5650 5654 5657 5660 5664 5668 5671 5674 5677 5679 5681 5683 5686 5688 5690 5691 5692 5693 5695 5700 5704 5708 5713 5716 5718 5721 5723 5725 5728 5731 5732 5733 5735 5736 5736 5735 5742 5749 5746 5745 5754 5757 5757 5761 5760 5757 5759 5757 5754 5756 5757 5758 5759 5757 5756 5757 5758 5756 5754
5539 5543 5547 5550 5554 5558 5562 5566 5569 5573 5577 5580 5584 5588 5592 5595 5598 5601 5605 5608 5612 5616 5619 5622 5627 5631 5634 5638 5641 5645 5648 5651 5655 5659 5662 5665 5668 5670 5672 5675 5676 5678 5681 5682 5684 5686 5687 5690 5696 5699 5702 5707 5709 5710 5713 5716 5718 5721 5722 5724 5726 5727 5727 5728 5732 5739 5741 5737 5742 5751 5749 5750 5756 5753 5751 5755 5751 5747 5750 5751 5751 5751 5750 5751 5752 5751 5749 5747
5536 5539 5543 5546 5550 5555 5559 5563 5566 5569 5572 5575 5579 5583 5587 5591 5595 5598 5602 5604 5608 5612 5614 5618 5624 5627 5629 5632 5636 5639 5643 5646 5650 5653 5656 5659 5661 5663 5666 5667 5669 5672 5674 5675 5678 5679 5681 5685 5690 5692 5696 5700 5701 5702 5706 5709 5710 5713 5715 5717 5719 5719 5721 5724 5728 5733 5733 5731 5738 5742 5739 5744 5751 5747 5747 5749 5744 5743 5747 5747 5746 5745 5743 5744 5744 5742 5741 5741
5531 5534 5538 5542 5546 5550 5554 5557 5561 5565 5568 5571 5575 5580 5584 5588 5592 5595 5597 5600 5604 5608 5611 5616 5621 5623 5624 5627 5630 5634 5639 5642 5645 5647 5650 5652 5654 5657 5659 5660 5663 5666 5668 5669 5672 5673 5676 5680 5684 5686 5688 5691 5693 5696 5699 5700 5702 5704 5706 5708 5711 5713 5716 5719 5724 5727 5725 5725 5732 5734 5731 5739 5747 5744 5742 5743 5739 5739 5741 5740 5740 5739 5737 5737 5736 5734 5734 5734
5526 5530 5534 5537 5541 5545 5548 5552 5556 5559 5563 5567 5573 5577 5581 5584 5588 5590 5593 5596 5600 5604 5608 5613 5615 5617 5618 5620 5624 5631 5636 5636 5637 5640 5643 5645 5647 5650 5651 5653 5658 5660 5662 5664 5665 5668 5672 5674 5678 5680 5680 5683 5688 5690 5690 5693 5693 5692 5694 5701 5706 5709 5712 5716 5718 5720 5718 5720 5725 5725 5725 5735 5741 5737 5735 5735 5733 5732 5733 5732 5732 5731 5731 5731 5730 5729 5729 5728
5520 5524 5528 5532 5535 5539 5544 5548 5551 5554 5560 5565 5569 5572 5576 5580 5583 5585 5589 5592 5596 5599 5603 5606 5607 5609 5612 5615 5622 5629 5630 5628 5630 5633 5635 5637 5640 5642 5644 5647 5651 5654 5655 5657 5659 5662 5666 5668 5672 5674 5673 5677 5683 5682 5683 5684 5679 5678 5689 5700 5704 5706 5708 5709 5709 5711 5713 5715 5716 5716 5721 5729 5730 5727 5726 5725 5724 5724 5724 5724 5724 5724 5725 5724 5724 5724 5723 5723